This is the latest recevied weather packets stored in our database for station/object G4ZMG. If no packets are shown the sender has not sent any weather packets the latest 10 day(s).
| Time | Temp. | Humidity | Pressure | Rain* | Wind** | Luminosity | Snow |
|---|---|---|---|---|---|---|---|
| 1777623004 | 16.11° C | 56% | 1018.2 hPa | 0 mm | - | 441 W/m² | - |
| 1777622450 | 15.56° C | 55% | 1018.3 hPa | 0 mm | - | 420 W/m² | - |
| 1777621839 | 15.56° C | 56% | 1018.3 hPa | 0 mm | - | 392 W/m² | - |
| 1777621232 | 15° C | 54% | 1018.4 hPa | 0 mm | - | 369 W/m² | - |
| 1777620629 | 15.56° C | 58% | 1018.3 hPa | 0 mm | - | 345 W/m² | - |
| 1777620021 | 14.44° C | 62% | 1018.1 hPa | 0 mm | - | 318 W/m² | - |
| 1777619408 | 12.78° C | 63% | 1018.1 hPa | 0 mm | - | 288 W/m² | - |
| 1777618847 | 12.78° C | 61% | 1018.2 hPa | 0 mm | - | 269 W/m² | - |
| 1777618241 | 13.33° C | 60% | 1018.2 hPa | 0 mm | - | 72 W/m² | - |
| 1777617627 | 13.33° C | 61% | 1018.1 hPa | 0 mm | - | 69 W/m² | - |
| 1777617012 | 12.78° C | 63% | 1018 hPa | 0 mm | - | 148 W/m² | - |
| 1777616407 | 12.22° C | 65% | 1017.9 hPa | 0 mm | - | 93 W/m² | - |
| 1777615842 | 11.67° C | 66% | 1017.9 hPa | 0 mm | - | 156 W/m² | - |
| 1777615205 | 10.56° C | 68% | 1018 hPa | 0 mm | - | 111 W/m² | - |
| 1777614643 | 10.56° C | 69% | 1018 hPa | 0 mm | - | 63 W/m² | - |
| 1777614037 | 10° C | 70% | 1018.1 hPa | 0 mm | - | 86 W/m² | - |
| 1777613430 | 10° C | 70% | 1018.1 hPa | 0 mm | - | 60 W/m² | - |
| 1777612830 | 9.44° C | 70% | 1018 hPa | 0 mm | - | 49 W/m² | - |
| 1777612227 | 9.44° C | 72% | 1018 hPa | 0 mm | - | 33 W/m² | - |
| 1777611608 | 8.89° C | 72% | 1018 hPa | 0 mm | - | 23 W/m² | - |
| 1777611003 | 8.89° C | 72% | 1017.9 hPa | 0 mm | - | 14 W/m² | - |
| 1777610439 | 8.89° C | 72% | 1017.9 hPa | 0 mm | - | 7 W/m² | - |
| 1777609835 | 8.89° C | 71% | 1017.9 hPa | 0 mm | - | 0 W/m² | - |
| 1777609227 | 8.89° C | 71% | 1017.8 hPa | 0 mm | - | 0 W/m² | - |
| 1777608612 | 8.89° C | 70% | 1017.8 hPa | 0 mm | - | 0 W/m² | - |
* Rain latest hour (hover to see other rain measurements)
** Current wind speed in m/s (hover to see current wind gust speed)